Regional Weather Roundup
Issued by NWS

Home | Current Version | Previous Version | Text Only | Print | Product List | Glossary Off
Versions: 1 2 3 4 5 6 7 8 9 10 11 12 13 14 15 16 17 18 19 20 21 22 23 24 25 26 27 28 29 30 31 32 33 34 35 36 37 38 39 40 41 42 43 44 45 46 47 48 49 50

000
ASUS45 KTFX 301604
RWRMT
MONTANA HOURLY WEATHER ROUNDUP
NATIONAL WEATHER SERVICE GREAT FALLS MT
904 AM MST FRI JAN 30 2015

NOTE: "FAIR" INDICATES FEW OR NO CLOUDS BELOW 12000 FEET WITH NO
SIGNIFICANT WEATHER AND/OR OBSTRUCTIONS TO VISIBILITY.

* THESE STATIONS ARE NOT UNDER NWS QUALITY CONTROL. THEY DO NOT
   REPORT WEATHER SUCH AS PRECIPITATION OR FOG.

MTZ001>007-043-301700-
WEST OF THE DIVIDE
CITY           SKY/WX    TMP DP  RH WIND       PRES   REMARKS
KALISPELL      FOG       16  12  84 CALM      30.37S VSB M1/4
MISSOULA       FOG       16  16 100 CALM      30.37S VSB 1
BUTTE          PTCLDY    18  12  77 S5        30.27S WCI  11
MULLAN PASS    SUNNY     30  18  61 CALM      30.23F
* ANACONDA     PTSUNNY   19  14  81 N/A        N/A
* ESSEX        N/A       10   7  88 N/A        N/A
* LINCOLN      N/A        8   4  84 N/A        N/A
* LOOKOUT PASS N/A       21  20  96 S3         N/A
* POLSON       N/A       25  24  96 N1         N/A
* RONAN APT    PTCLDY    21  19  92 N/A        N/A
* SEELEY LAKE  N/A        2  -3  79 N/A        N/A
* THOMP F APT  SUNNY     24  14  66 N3G9       N/A
$$

MTZ008-052>055-301700-
SOUTHWEST MONTANA
CITY           SKY/WX    TMP DP  RH WIND       PRES   REMARKS
BOZEMAN        PTCLDY    21  18  88 CALM      30.28S
DILLON         PTSUNNY   21  16  81 S9        30.26S WCI  11
* W YELLOWSTON PTSUNNY    8   4  84 N/A        N/A
* THREE FORKS  PTCLDY    19  10  68 N/A        N/A
* BOULDER HILL N/A       25  11  55 S9         N/A   WCI  16
* MONIDA PASS  N/A        7   5  91 SW5        N/A   WCI  -2
* RAYNOLDS PAS N/A       11  11 100 N/A        N/A
* WHITEHALL    N/A       20  17  88 E3G9       N/A
* WISE RIVER   N/A       10   7  88 W4         N/A
$$

MTZ009>010-012-014-046-048-049-054-301700-
EAST SLOPES AND CENTRAL MONTANA
CITY           SKY/WX    TMP DP  RH WIND       PRES   REMARKS
CUT BANK       SUNNY     25  18  75 W7        30.19S WCI  17
GREAT FALLS    SUNNY     30  21  69 CALM      30.20S
HELENA         PTCLDY    25  19  78 CALM      30.27S
MALMSTROM AFB  SUNNY     28  21  75 SW5       30.22R WCI  22
* DEARBORN     N/A       25  20  81 N/A        N/A
* EAST GLACIER N/A       30  14  51 W14G23     N/A   WCI  19
* MONARCH      N/A       25   8  48 E1G8       N/A
* PENDROY      N/A       30   5  34 W2         N/A
* ROGERS PASS  N/A       22  17  81 NW4G12     N/A
* SWEET GRASS  N/A       39   9  29 W6         N/A   WCI  35
$$

MTZ011-013-016-021-035-040-045-047-050-051-301700-
NORTH CENTRAL MONTANA
CITY           SKY/WX    TMP DP  RH WIND       PRES   REMARKS
HAVRE          PTCLDY    25  21  85 W3        30.22S
LEWISTOWN      PTCLDY    28  16  61 SE3       30.21R
* CHESTER      N/A       21  17  84 S2         N/A
* DENTON       N/A       25  17  72 N/A        N/A
* GEYSER       N/A       29  13  51 SW10       N/A   WCI  20
* JUDITH GAP   N/A       32  12  43 N4         N/A
* LOMA         N/A       26  20  78 W4         N/A
$$

MTZ017>020-022>027-061-062-301700-
NORTHEAST MONTANA
CITY           SKY/WX    TMP DP  RH WIND       PRES   REMARKS
GLASGOW        FOG       21  19  92 NW7       30.21R VSB M1/4 WCI  12
GLENDIVE       SUNNY     28  25  89 S6        30.20R WCI  21
JORDAN         SUNNY     28  25  89 W5        30.22R WCI  22
SIDNEY         SUNNY     27  23  85 S5        30.21R WCI  21
WOLF POINT     SUNNY     25  21  85 W7        30.22R WCI  17
* BEAVER HILL  N/A       32  24  72 SW9        N/A   WCI  24
* CIRCLE       N/A       28  26  92 N/A        N/A
* LINDSAY DVD  N/A       32  26  79 W11        N/A   WCI  23
* NAVAJO       N/A       29  26  89 NW17G22    N/A   WCI  17
* SACO         N/A       17  15  92 W1         N/A
$$

MTZ028>042-056>058-301700-
SOUTHCENTRAL AND SOUTHEAST MONTANA
CITY           SKY/WX    TMP DP  RH WIND       PRES   REMARKS
BAKER          SUNNY     32  25  75 W3        30.20R
BILLINGS       PTSUNNY   32  21  64 SW16      30.22F WCI  21
LIVINGSTON     PTSUNNY   36  16  44 W18       30.23S WCI  26
MILES CITY     PTCLDY    28  25  89 CALM      30.22R
* LAUREL APT   PTSUNNY   27  18  69 SW6        N/A   WCI  20
* ROUNDUP APT  PTCLDY    27  18  69 N/A        N/A
* ALZADA       N/A       30  24  78 W3         N/A
* HYSHAM       N/A       32  26  79 W6         N/A   WCI  26
* LAME DEER    N/A       33  22  64 W9         N/A   WCI  25
* REED POINT   N/A       24  24 100 W8         N/A   WCI  15
$$

REGIONAL REPORTS...DAKOTAS
CITY           SKY/WX    TMP DP  RH WIND       PRES   REMARKS
WILLISTON      SUNNY     25  19  78 SW3       30.18R
DICKINSON      SUNNY     34  25  70 W13       30.14R WCI  25
CROSBY         SUNNY     28  27  96 W9        30.16S WCI  19
WATFORD CITY   SUNNY     28  25  89 SW6       30.15R WCI  21
BISMARCK       SUNNY     25  19  78 SW8       30.20S WCI  16
GRAND FORKS    CLOUDY    16  10  77 S20       30.29F WCI  -1
FARGO          PTCLDY    18  10  71 S14G23    30.35F WCI   4
BUFFALO SD     PTCLDY    30  21  69 W5        30.11R WCI  25
RAPID CITY     CLOUDY    34  25  70 NW7       30.17S WCI  28
$$

REGIONAL REPORTS...WYOMING/IDAHO/WASHINGTON
CITY           SKY/WX    TMP DP  RH WIND       PRES   REMARKS
GILLETTE       CLOUDY    30  27  89 CALM      30.19S
SHERIDAN       CLOUDY    28  21  75 CALM      30.22S
CODY           PTCLDY    27  21  78 CALM      30.21S
YELLOWSTONE LA PTSUNNY    0  -4  83 CALM      30.26F
SALMON         CLOUDY    25  21  85 CALM      30.36S
MULLAN PASS    SUNNY     30  18  61 CALM      30.23S
SAND POINT     CLOUDY    28  28 100 NE6       30.39S WCI  21
SPOKANE        FOG       30  28  92 E6        30.36R VSB M1/4 WCI  24

$$




USA.gov is the U.S. government's official web portal to all federal, state and local government web resources and services.